Regional Weather Roundup
Issued by NWS New Orleans/Baton Rouge, LA

Home | Current Version | Previous Version | Text Only | Print | Product List | Glossary Off
Versions: 1 2 3 4 5 6 7 8 9 10 11 12 13 14 15 16 17 18 19 20 21 22 23 24 25 26 27 28 29 30 31 32 33 34 35 36 37 38 39 40 41 42 43 44 45 46 47 48 49 50

704
ASUS44 KLIX 250610
RWRLIX
NEW ORLEANS REGIONAL WEATHER ROUNDUP
NATIONAL WEATHER SERVICE NEW ORLEANS LA
100 AM CDT SAT OCT 25 2014

NOTE: "FAIR" INDICATES FEW OR NO CLOUDS BELOW 12,000 FEET WITH NO
      SIGNIFICANT WEATHER AND/OR OBSTRUCTIONS TO VISIBILITY.
      SKY/WX - SKY CONDITION AND SIGNIFICANT WEATHER.
      TMP - AIR TEMPERATURE.     DP    - DEWPOINT TEMPERATURE.
      RH  - RELATIVE HUMIDITY.   PRES  - PRESSURE.
      HI  - HEAT INDEX.          WCI   - WIND CHILL INDEX.

*  THESE STATIONS ARE NOT NWS OR FAA STATIONS AND ARE NOT UNDER
   NWS QUALITY CONTROL.

LAZ038-040-048-061>063-065>067-069-250700-
SOUTHEAST LOUISIANA

CITY           SKY/WX    TMP DP  RH WIND       PRES   REMARKS
N.O. AUDUBON   NOT AVBL
N.O. INTL ARPT CLEAR     64  53  67 N7        30.10S
6HR MIN TEMP:  59; 6HR MAX TEMP:  69;

N.O. LAKEFRONT CLEAR     68  53  58 N14       30.10S
6HR MIN TEMP:  68; 6HR MAX TEMP:  72;

N.O. DOWNTOWN*   N/A     66  48  52 N5        30.11R
6HR MIN TEMP:  66; 6HR MAX TEMP:  72;

SLIDELL        CLEAR     51  47  86 CALM      30.10R
6HR MIN TEMP:  49; 6HR MAX TEMP:  61;

BATON ROUGE    CLEAR     53  47  79 CALM      30.12S
6HR MIN TEMP:  53; 6HR MAX TEMP:  64;

BOOTHVILLE     CLEAR     68  59  73 N5        30.08S
6HR MIN TEMP:  65; 6HR MAX TEMP:  68;

BELLE CHASSE   CLEAR     52  49  89 CALM      30.10R
6HR MIN TEMP:  51; 6HR MAX TEMP:  60;

BOGALUSA*        N/A     49  45  87 CALM      30.12S
6HR MIN TEMP:  48; 6HR MAX TEMP:  63;

NEW ROADS*       N/A     50  49  95 CALM      30.13S
6HR MIN TEMP:  50; 6HR MAX TEMP:  63;

GONZALES*        N/A     53  53 100 CALM      30.11F
6HR MIN TEMP:  53; 6HR MAX TEMP:  60;

HAMMOND*       CLEAR     50  46  87 CALM      30.13S
HOUMA*         CLEAR     56  50  80 NW6       30.10S
6HR MIN TEMP:  51; 6HR MAX TEMP:  66;

PORT FOURCHON* CLEAR     64  55  72 N6        30.12S

$$

MSZ070-080>082-250700-
SOUTHERN MISSISSIPPI

CITY           SKY/WX    TMP DP  RH WIND       PRES   REMARKS
MCCOMB         CLEAR     50  46  86 CALM      30.12S
6HR MIN TEMP:  50; 6HR MAX TEMP:  66;

GULFPORT       CLEAR     54  47  77 NW5       30.08R
6HR MIN TEMP:  52; 6HR MAX TEMP:  65;

BILOXI         CLEAR     60  48  65 N5        30.08R
6HR MIN TEMP:  60; 6HR MAX TEMP:  69;

PASCAGOULA     CLEAR     47  46  97 CALM      30.08R
6HR MIN TEMP:  46; 6HR MAX TEMP:  59;


$$

COASTAL OBSERVATIONS
LAKE AND NEARSHORE STATIONS

STATION/POSITION TIME  TEMP    WIND        PRES    WAVE
                       AIR SEA DIR/SP/G            HT/PER
                 (UTC) (F)     (DEG/KT/KT) (MB)    (FT/S)
PASCAGOULA       0600   59     350/  8/  9 1017.7
WAVELAND YACHT   0600   63     350/  9/ 11 1017.9
GRAND ISLE       0600   69 72   10/  9/ 11 1019.1
SOUTHWEST PASS   0600   72 80              1018.5
NEW CANAL        0600   69 70   10/ 11/ 14 1019.5
SHELL BEACH      0600   69 67  360/ 14/ 15 1018.6

OFFSHORE STATIONS

STATION/POSITION TIME  TEMP    WIND        PRES    WAVE
                       AIR SEA DIR/SP/G            HT/PER
                 (UTC) (F)     (DEG/KT/KT) (MB)    (FT/S)
64 S DAUPHIN ISL 0517   74 78   20/ 14/ 17 1017.9    2/ 3

$$




USA.gov is the U.S. government's official web portal to all federal, state and local government web resources and services.